[[{"header":{"parameterUnit":"m.s-1","parameterCategory":1,"la1":30.2991,"la2":30.254,"lo1":-89.0895,"lo2":-89.0444,"dy":0.0017,"dx":0.0017,"nx":28,"ny":28,"refTime":"2025-07-24T09:00:00:Z","depth":0,"parameterNumber":2,"parameterNumberName":"U-component_of_WINDS"},"data":[0,0,0,0,0,0,0,0,0,0,0,0,0,0,0,0,0,0,0,0,0,0,0,0,0,0,0,0,0,0,0,0,0,0,0,0,0,0,0,0,0,0,0,0,0,0,0,0,0,0,0,0,0,0,0,0,0,0,-1.9631,-1.9632,0,-1.9729,-1.973,-1.9731,-1.9767,-1.9767,-1.9766,-1.9766,-1.9867,-1.987,-1.9873,0,0,0,0,0,0,0,0,0,0,0,0,0,-1.9475,-1.9477,-1.9631,-1.9632,-1.9633,-1.9729,-1.973,-1.9732,-1.9767,-1.9767,-1.9766,-1.9766,-1.9866,-1.9869,-1.9873,0,0,0,0,0,0,0,0,0,0,0,0,0,-1.9555,-1.9478,-1.963,-1.9662,-1.9666,-1.9729,-1.973,-1.9732,-1.9767,-1.9767,-1.9766,-1.9766,-1.9865,-1.9869,-1.9873,-1.9911,0,0,-1.9887,-1.9889,0,0,0,0,0,0,0,0,-1.955,-1.956,-1.9657,-1.966,-1.9665,-1.9735,-1.9712,-1.9792,-1.9767,-1.9729,-1.9766,-1.9766,-1.9823,-1.9831,-1.9851,-1.9916,-1.992,-1.9887,-1.989,-1.9892,-1.9893,0,0,0,0,0,0,0,-1.9544,-1.9556,-1.967,-1.9658,-1.9663,-1.9672,-1.9683,-1.9727,-1.9778,-1.9732,-1.9735,-1.9746,-1.9826,-1.9846,-1.9853,-1.9921,-1.9887,-1.9891,-1.9894,-1.9896,-2.0024,-2.0024,0,0,0,0,0,0,-1.9533,-1.9551,-1.9667,-1.9673,-1.9605,-1.9675,-1.9688,-1.9713,-1.9777,-1.9787,-1.9747,-1.9748,-1.9839,-1.9848,-1.9857,-1.9906,-1.9892,-1.9896,-1.9899,-2.0023,-2.0024,-2.0024,0,0,0,0,0,0,-1.953,-1.9543,-1.9663,-1.9613,-1.9629,-1.9679,-1.9707,-1.9715,-1.9736,-1.9788,-1.9797,-1.9759,-1.9839,-1.9851,-1.9898,-1.991,-1.9898,-1.9902,-2.0022,-2.0023,-2.0024,-2.0004,0,0,0,0,0,0,-1.9525,-1.9542,-1.9556,-1.9613,-1.9631,-1.9701,-1.9708,-1.9718,-1.9744,-1.9746,-1.9802,-1.9811,-1.9839,-1.9891,-1.9902,-1.9916,-1.9906,-2.0021,-2.0022,-2.0024,-2.0004,-2.0004,-2.0004,0,0,0,0,0,-1.952,-1.9547,-1.9557,-1.9571,-1.965,-1.9702,-1.9712,-1.9745,-1.9745,-1.976,-1.9794,-1.9809,-1.9907,-1.9895,-1.9908,-1.9924,-2.002,-2.0022,-2.0024,-2.0003,-2.0004,-2.0004,0,0,0,0,0,0,-1.949,-1.9554,-1.9567,-1.9613,-1.9652,-1.9708,-1.9728,-1.9744,-1.9784,-1.9784,-1.9823,-1.9835,-1.9879,-1.9906,-1.9892,-1.9964,-1.9965,-1.9969,-1.9945,-1.9946,-1.9946,-1.9939,-1.9909,0,0,0,0,0,-1.9489,-1.9525,-1.9579,-1.9615,-1.9634,-1.9677,-1.9701,-1.9723,-1.9765,-1.9781,-1.9818,-1.9858,-1.9898,-1.9923,-1.9963,-2.0008,-2.0021,-2.0025,-2.0025,-2.0026,-2.0029,-2.0055,-2.0058,-2.003,-2.003,-2.003,0,0,-1.9487,-1.9526,-1.9547,-1.961,-1.9643,-1.9679,-1.9691,-1.9729,-1.9757,-1.9787,-1.9834,-1.9862,-1.991,-1.9956,-1.9978,-1.998,-2.004,-2.0028,-2.0027,-2.0031,-2.0057,-2.006,-2.0062,-2.0031,-2.0031,-2.003,0,0,-1.9502,-1.9535,-1.9569,-1.9601,-1.9651,-1.968,-1.9688,-1.9742,-1.9762,-1.981,-1.9833,-1.9867,-1.9935,-1.9968,-1.9994,-2.0023,-2.0038,-2.0034,-2.0037,-2.0062,-2.0064,-2.0066,-2.0077,-2.008,-2.0037,-2.0037,-2.0037,0,-1.9493,-1.9549,-1.9584,-1.9621,-1.9649,-1.9678,-1.9713,-1.9743,-1.9802,-1.9821,-1.9822,-1.9908,-1.9942,-1.9997,-2.0004,-2.0024,-2.0034,-2.0028,-2.0061,-2.0064,-2.0066,-2.0077,-2.0081,-2.0037,-2.0037,-2.0037,-2.0037,0,-1.9536,-1.9575,-1.9596,-1.9654,-1.9683,-1.9719,-1.976,-1.9786,-1.9805,-1.9834,-1.9883,-1.9925,-1.9974,-1.9988,-2.0008,-2.0046,-2.0046,-2.0053,-2.0055,-2.0067,-2.0078,-2.0082,-2.0036,-2.0036,-2.0036,-2.0036,0,0,-1.9535,-1.9611,-1.9619,-1.9646,-1.9703,-1.9734,-1.9771,-1.9819,-1.9841,-1.9882,-1.9914,-1.9972,-1.9979,-2.0008,-2.0032,-2.0054,-2.0075,-2.0059,-2.0061,-2.0061,-2.0121,-2.0115,-2.0119,-2.0086,-2.0087,-2.0088,-2.0117,0,-1.9558,-1.9626,-1.9658,-1.9712,-1.9749,-1.9778,-1.9811,-1.9849,-1.9878,-1.9913,-1.9945,-1.9985,-1.9992,-2.001,-2.0033,-2.0067,-2.0088,-2.0066,-2.0117,-2.0118,-2.0104,-2.0124,-2.0118,-2.0143,-2.0121,-2.0122,-2.0123,0,-1.9593,-1.9634,-1.9691,-1.9745,-1.9762,-1.9791,-1.9838,-1.9872,-1.9916,-1.9936,-1.9969,-1.9992,-2.0033,-2.0031,-2.0088,-2.0073,-2.0096,-2.0116,-2.0118,-2.0124,-2.0121,-2.0131,-2.0152,-2.0156,-2.0129,-2.0129,-2.0128,0,-1.9587,-1.9656,-1.97,-1.9722,-1.9785,-1.9805,-1.9833,-1.9877,-1.9904,-1.9946,-1.9964,-2.0009,-2.0034,-2.0069,-2.0104,-2.01,-2.0158,-2.0159,-2.0175,-2.0174,-2.0186,-2.0185,-2.0211,-2.0201,-2.0201,-2.0201,-2.0201,0,-1.9609,-1.9643,-1.9698,-1.9725,-1.9764,-1.9802,-1.984,-1.987,-1.9909,-1.9942,-1.997,-2.0001,-2.0045,-2.0081,-2.0109,-2.0153,-2.0164,-2.018,-2.0187,-2.0178,-2.0176,-2.0193,-2.0193,-2.0202,-2.0201,-2.0201,-2.0201,0,-1.9609,-1.9647,-1.9696,-1.9753,-1.9768,-1.9794,-1.9843,-1.987,-1.99,-1.9942,-1.9954,-2.0001,-2.0046,-2.0084,-2.0143,-2.0161,-2.0206,-2.0215,-2.0191,-2.0195,-2.0209,-2.0207,-2.0247,-2.0255,-2.0239,-2.0239,-2.0239,0,-1.962,-1.9647,-1.9707,-1.9731,-1.9758,-1.9797,-1.9825,-1.9864,-1.9892,-1.9945,-1.9966,-2.0013,-2.0052,-2.0122,-2.0162,-2.0207,-2.0216,-2.0228,-2.0223,-2.0213,-2.0217,-2.0215,-2.0218,-2.0227,-2.0227,-2.0227,-2.0227,0,-1.9637,-1.9655,-1.9694,-1.974,-1.9773,-1.9811,-1.985,-1.9868,-1.9914,-1.9944,-1.999,-2.0021,-2.0081,-2.0127,-2.0176,-2.0205,-2.0224,-2.0229,-2.0235,-2.0225,-2.0211,-2.0219,-2.0191,-2.0227,-2.0227,-2.0227,-2.0227,-2.0227,-1.9644,-1.9669,-1.9715,-1.9758,-1.9792,-1.9828,-1.9856,-1.989,-1.9929,-1.9981,-2.0002,-2.0048,-2.0094,-2.0162,-2.0191,-2.0229,-2.0231,-2.024,-2.0242,-2.0244,-2.0243,-2.0205,-2.0238,-2.0238,-2.0238,-2.0238,-2.0238,0,-1.9663,-1.9694,-1.9733,-1.9787,-1.9821,-1.9836,-1.988,-1.9907,-1.9948,-1.9989,-2.0027,-2.008,-2.0125,-2.0168,-2.0216,-2.0237,-2.0247,-2.0248,-2.0247,-2.0254,-2.0237,-2.0227,-2.024,-2.024,-2.024,-2.024,-2.024,-2.024,-1.9676,-1.9721,-1.9744,-1.9805,-1.9836,-1.9883,-1.9907,-1.994,-1.9973,-2.0031,-2.0068,-2.0096,-2.0138,-2.0189,-2.0231,-2.0242,-2.0259,-2.0257,-2.0271,-2.0255,-2.0255,-2.0254,-2.0245,-2.0261,-2.0261,-2.0285,-2.0285,-2.0285]},{"header":{"parameterUnit":"m.s-1","parameterCategory":1,"la1":30.2991,"la2":30.254,"lo1":-89.0895,"lo2":-89.0444,"dy":0.0017,"dx":0.0017,"nx":28,"ny":28,"refTime":"2025-07-24T09:00:00:Z","depth":0,"parameterNumber":3,"parameterNumberName":"V-component_of_WINDS"},"data":[0,0,0,0,0,0,0,0,0,0,0,0,0,0,0,0,0,0,0,0,0,0,0,0,0,0,0,0,0,0,0,0,0,0,0,0,0,0,0,0,0,0,0,0,0,0,0,0,0,0,0,0,0,0,0,0,0,0,6.5789,6.579,0,6.5849,6.5849,6.585,6.5789,6.5787,6.5784,6.5782,6.5837,6.5841,6.5844,0,0,0,0,0,0,0,0,0,0,0,0,0,6.5619,6.5622,6.5789,6.579,6.5791,6.5848,6.5849,6.585,6.5789,6.5786,6.5784,6.5781,6.5836,6.584,6.5845,0,0,0,0,0,0,0,0,0,0,0,0,0,6.5687,6.5623,6.5789,6.5768,6.5766,6.5848,6.5849,6.585,6.579,6.5786,6.5783,6.578,6.5835,6.584,6.5845,6.595,0,0,6.5862,6.5865,0,0,0,0,0,0,0,0,6.5683,6.5693,6.577,6.5769,6.5768,6.5808,6.5809,6.5884,6.5791,6.5781,6.5782,6.5778,6.583,6.5836,6.5854,6.5953,6.5955,6.5863,6.5866,6.5868,6.587,0,0,0,0,0,0,0,6.5678,6.569,6.5812,6.5771,6.577,6.5753,6.5759,6.5823,6.5824,6.5781,6.5777,6.5785,6.5829,6.5849,6.5855,6.5956,6.5863,6.5867,6.5871,6.5873,6.6143,6.6146,0,0,0,0,0,0,6.5677,6.5687,6.5811,6.5814,6.5716,6.5759,6.5766,6.5798,6.5823,6.5824,6.5788,6.5782,6.5842,6.5849,6.5857,6.598,6.5868,6.5874,6.5877,6.6139,6.6144,6.6148,0,0,0,0,0,0,6.5673,6.5688,6.5808,6.5749,6.5763,6.5766,6.5803,6.5801,6.5822,6.5829,6.5828,6.5809,6.5839,6.5849,6.5928,6.5981,6.5876,6.5881,6.6134,6.614,6.6146,6.6228,0,0,0,0,0,0,6.5669,6.5688,6.5728,6.5751,6.5767,6.588,6.5807,6.5805,6.5832,6.5825,6.5848,6.5849,6.5837,6.592,6.5933,6.5987,6.5885,6.6129,6.6137,6.6144,6.6221,6.6236,6.625,0,0,0,0,0,6.5663,6.5748,6.5731,6.5746,6.5818,6.5883,6.5892,6.5878,6.5837,6.5877,6.5882,6.5848,6.5974,6.5928,6.5943,6.5999,6.6126,6.6135,6.6143,6.6214,6.6233,6.6249,0,0,0,0,0,0,6.5729,6.5751,6.5731,6.5827,6.5854,6.5872,6.5922,6.5899,6.5936,6.5927,6.5908,6.5913,6.5997,6.6006,6.5955,6.6102,6.6043,6.6055,6.6092,6.611,6.6124,6.6119,6.589,0,0,0,0,0,6.5756,6.5808,6.5823,6.5906,6.5921,6.592,6.5947,6.5935,6.5961,6.5971,6.5981,6.6007,6.6052,6.6082,6.6124,6.6223,6.6226,6.6269,6.6283,6.6295,6.6305,6.6357,6.6376,6.6176,6.6176,6.6176,0,0,6.5809,6.5827,6.5861,6.592,6.5939,6.5992,6.5929,6.5988,6.6027,6.598,6.6054,6.6063,6.609,6.6179,6.6219,6.619,6.6361,6.6306,6.6316,6.6319,6.6368,6.6387,6.6404,6.6182,6.6181,6.618,0,0,6.5934,6.5954,6.6025,6.6046,6.6077,6.6076,6.6093,6.6116,6.6121,6.6196,6.6162,6.6207,6.6286,6.6307,6.6327,6.6462,6.6432,6.6477,6.655,6.6602,6.6617,6.6631,6.6678,6.6695,6.6487,6.6487,6.6487,0,6.5996,6.6076,6.6063,6.6125,6.6151,6.6114,6.6185,6.6206,6.6248,6.6266,6.6234,6.6332,6.6348,6.6441,6.6474,6.6493,6.651,6.6472,6.6617,6.663,6.6643,6.6687,6.6705,6.6492,6.6491,6.6491,6.649,0,6.615,6.6207,6.626,6.6304,6.6337,6.6402,6.6398,6.6433,6.6418,6.6421,6.6497,6.6516,6.656,6.6582,6.6568,6.6673,6.6654,6.662,6.656,6.6667,6.6708,6.6725,6.6499,6.6497,6.6496,6.6495,0,0,6.6316,6.6354,6.6373,6.6393,6.6426,6.6468,6.6532,6.6578,6.6607,6.6638,6.669,6.6759,6.6727,6.6751,6.6739,6.6784,6.6889,6.6744,6.6744,6.6768,6.7005,6.7029,6.7049,6.687,6.6873,6.6876,6.7002,0,6.644,6.6553,6.6544,6.665,6.6701,6.6668,6.6723,6.6748,6.6753,6.6796,6.68,6.6848,6.6804,6.6818,6.6862,6.6867,6.6935,6.6858,6.6916,6.6918,6.6908,6.707,6.7096,6.7214,6.7018,6.7021,6.7023,0,6.6599,6.6638,6.675,6.6775,6.6796,6.6847,6.6888,6.6931,6.6958,6.6958,6.6986,6.6966,6.703,6.6971,6.7057,6.7004,6.7028,6.7035,6.7039,6.7042,6.6975,6.7076,6.7251,6.7268,6.7048,6.7046,6.7044,0,6.6707,6.6787,6.6864,6.6883,6.6914,6.695,6.6965,6.6989,6.7018,6.7054,6.7072,6.7114,6.7137,6.717,6.7162,6.712,6.725,6.719,6.725,6.725,6.7276,6.7274,6.7456,6.7296,6.7295,6.7295,6.7295,0,6.6846,6.6915,6.6913,6.696,6.7037,6.7026,6.7101,6.7111,6.7134,6.7181,6.7155,6.7199,6.7188,6.7232,6.7226,6.7297,6.7308,6.7309,6.7306,6.731,6.731,6.7323,6.7314,6.73,6.7299,6.7298,6.7297,0,6.6978,6.698,6.7061,6.7086,6.7093,6.7148,6.7168,6.7212,6.7215,6.7276,6.7289,6.7294,6.7344,6.7341,6.7397,6.7393,6.7481,6.747,6.7472,6.7469,6.7528,6.7522,6.7723,6.7748,6.7573,6.7575,6.7576,0,6.7065,6.7118,6.7148,6.7179,6.7197,6.7247,6.7276,6.7268,6.7299,6.7336,6.7375,6.7423,6.7461,6.7544,6.7551,6.7594,6.7582,6.765,6.7588,6.7591,6.7581,6.7577,6.7582,6.7661,6.7663,6.7665,6.7666,0,6.7219,6.7218,6.7263,6.7308,6.7344,6.7379,6.741,6.7437,6.7432,6.7468,6.752,6.755,6.7609,6.7657,6.7699,6.7712,6.7688,6.7686,6.7701,6.7705,6.7704,6.7704,6.7503,6.768,6.7679,6.7678,6.7677,6.7677,6.7331,6.7376,6.7405,6.7455,6.7479,6.7509,6.7552,6.7561,6.7605,6.7653,6.7646,6.7704,6.773,6.7784,6.7801,6.7846,6.7821,6.7844,6.785,6.7855,6.7861,6.7699,6.7853,6.7853,6.7853,6.7852,6.7852,0,6.7482,6.75,6.7546,6.7593,6.7632,6.7609,6.7643,6.7677,6.7729,6.7756,6.7795,6.7855,6.7902,6.7914,6.7959,6.7992,6.7982,6.8004,6.8,6.8003,6.7881,6.7862,6.8011,6.8011,6.8011,6.8011,6.8011,6.8011,6.7566,6.7641,6.7643,6.773,6.7746,6.7805,6.7826,6.7853,6.7875,6.7944,6.7983,6.7992,6.8013,6.8059,6.81,6.8102,6.8119,6.8145,6.8143,6.8028,6.8012,6.7997,6.7979,6.8149,6.815,6.8261,6.8262,6.8263]}]]